Regional Weather Roundup
Issued by NWS

Home | Current Version | Previous Version | Graphics & Text | Print | Product List | Glossary Off
Versions: 1 2 3 4 5 6 7 8 9 10 11 12 13 14 15 16 17 18 19 20 21 22 23 24 25 26 27 28 29 30 31 32 33 34 35 36 37 38 39 40 41 42 43 44 45 46 47 48 49 50

000
ASUS43 KTOP 050608
RWRKS

WEATHER ROUNDUP FOR KANSAS
NATIONAL WEATHER SERVICE GOODLAND KS
100 AM CDT SUN JUL 05 2015

NOTE:  "FAIR" INDICATES FEW OR NO CLOUDS BELOW 12,000 FEET WITH NO
SIGNIFICANT WEATHER AND/OR OBSTRUCTIONS TO VISIBILITY.

KSZ001>006-013>018-027>032-041>047-050700-
NORTHWEST KANSAS

CITY           SKY/WX    TMP DP  RH WIND       PRES   REMARKS
GOODLAND       PTCLDY    75  60  59 S16       29.91F
6HR MIN TEMP:  75; 6HR MAX TEMP:  91;

HAYS           PTCLDY    77  63  61 S15       29.92S
HILL CITY      CLEAR     79  65  62 SE8       29.90F
6HR MIN TEMP:  79; 6HR MAX TEMP:  93;

RUSSELL        CLEAR     76  66  71 SE15      29.91S
6HR MIN TEMP:  76; 6HR MAX TEMP:  88;

$$

KSZ061>065-074>080-084>089-050700-
SOUTHWEST KANSAS

CITY           SKY/WX    TMP DP  RH WIND       PRES   REMARKS
DODGE CITY     MOCLDY    74  65  73 S14       29.95S
6HR MIN TEMP:  74; 6HR MAX TEMP:  89;

ELKHART          N/A     77  57  50 S13         N/A
GARDEN CITY    CLOUDY    75  64  68 SE14      29.93S
6HR MIN TEMP:  75; 6HR MAX TEMP:  87;

GREAT BEND     MOCLDY    75  66  73 S14       29.94S
LIBERAL        PTCLDY    73  63  68 S9        29.95S
PRATT          MOCLDY    77  63  61 S12       29.97R
$$

KSZ066>073-081>083-090>101-050700-
SOUTHEAST KANSAS

CITY           SKY/WX    TMP DP  RH WIND       PRES   REMARKS
CHANUTE        CLEAR     72  68  87 E6        29.99R
6HR MIN TEMP:  72; 6HR MAX TEMP:  85;

COFFEYVILLE    CLEAR     74  69  85 SE6       29.97S
6HR MIN TEMP:  74; 6HR MAX TEMP:  88;

HUTCHINSON     PTCLDY    77  66  68 SE10      29.96R
6HR MIN TEMP:  76; 6HR MAX TEMP:  89;

MEDICINE LODGE   N/A     76  66  71 SE6       29.95R
NEWTON         CLEAR     72  63  73 SE8       29.99S
PARSONS        CLEAR     76  69  79 SE5       29.99S
6HR MIN TEMP:  76; 6HR MAX TEMP:  86;

WICHITA INTL   CLEAR     77  65  66 SE8       29.96R
6HR MIN TEMP:  77; 6HR MAX TEMP:  89;

WICHITA JABRA  CLEAR     74  66  76 SE7       29.97R
6HR MIN TEMP:  74; 6HR MAX TEMP:  87;

WICHITA MCCONL CLEAR     76  66  72 SE8       29.97R
WINFIELD       CLEAR     77  66  68 SE8       29.98R
6HR MIN TEMP:  77; 6HR MAX TEMP:  88;

$$

KSZ007>012-019>026-033>040-048>060-102>105-050700-
NORTHEAST KANSAS

CITY           SKY/WX    TMP DP  RH WIND       PRES   REMARKS
CONCORDIA      MOCLDY    73  64  73 SE10      29.94S
6HR MIN TEMP:  73; 6HR MAX TEMP:  85;

EMPORIA        CLEAR     71  66  84 SE12      29.98S
6HR MIN TEMP:  71; 6HR MAX TEMP:  84;

LAWRENCE       CLEAR     67  64  90 E6        30.00R FOG
6HR MIN TEMP:  66; 6HR MAX TEMP:  81;

MANHATTAN      PTCLDY    73  66  78 VRB3      29.96R
6HR MIN TEMP:  72; 6HR MAX TEMP:  86;

MARYSVILLE     PTCLDY    70  64  83 SE8       29.96S
OLATHE IND     CLEAR     69  65  86 SE5       30.02R
6HR MIN TEMP:  69; 6HR MAX TEMP:  80;

OLATHE EXE     CLEAR     69  64  84 SE3       30.01R HAZE
6HR MIN TEMP:  68; 6HR MAX TEMP:  78;

SALINA         PTCLDY    78  64  61 SE13      29.94R
6HR MIN TEMP:  78; 6HR MAX TEMP:  90;

TOPEKA BILLARD CLEAR     70  65  84 E5        29.99R
6HR MIN TEMP:  70; 6HR MAX TEMP:  82;

TOPEKA FORBES  CLEAR     70  65  84 SE6       29.99R
6HR MIN TEMP:  70; 6HR MAX TEMP:  83;

$$


USA.gov is the U.S. government's official web portal to all federal, state and local government web resources and services.